SL-16 DEB, 22500

Orbit data source: Space-Track

SL-16 DEB, 22500 is space debris in LEO originally from a launch on Fri, 25 Dec 1992 UTC launched from the Tyuratam Missile And Space Complex (TTMTR). Debris objects in space refer to the collection of defunct objects orbiting the Earth. Examples of debris include non-operational satellites, rocket bodies, and fragments generated from explosions, collisions, or faulty payload assembly.

Loading next visibility...
Identifier
22500, 1992-093GK
Orbit
LEO
Country
Flag of CISCIS
Related business
Manufacturer
Unknown
Mission
Spacecraft
Bus & Motor
Unknown
Mass
Unknown
Launch date (UTC)
1992-12-25 (33 years ago)
Launch vehicle
Unknown
Launch site
Tyuratam Missile And Space Complex (TTMTR)
Object type
Payload
Rocket body
Debris
Shape & HBR
Unknown shape, 0.1 m
Radar Cross Section
Small (<0.1 m²)

Expand to show TLE details & history
Last TLE update: 9 hours ago

TLE from 9 hours ago
0 SL-16 DEB
1 22500U 92093GK  26037.17975436  .00001336  00000-0  53792-3 0  9994
2 22500  70.8488 315.2709 0061415 327.8911  31.8482 14.28878220711682
Epoch: 2026-02-06T04:18Z
TLE epoch observation values (Epoch: 2026-02-06T04:18:50.776Z)
Latitude
-0.00006°
Longitude
114.23797°
Altitude
760.535 km
Speed
7.494 km/s
True Right ascension
21h 01m 05s
True Declination
0° 00' 00"
Sunlit
Object was in daylight at epoch
Visualization orbit readout
Latitude
Unknown
Longitude
Unknown
Altitude
Unknown
Speed
Unknown
Apparent Right ascension
Unknown
Apparent Declination
Unknown
Sunlit
N/A
Visualization observer readout
Local Sidereal Time
15:52:37
Azimuth
Unknown
Elevation
Unknown
Doppler factor
Unknown
Orbital elements
Apogee altitude
837.453 km
Perigee altitude
749.365 km
Semi-major axis
7,171.546 km
Eccentricity
0.00614
Inclination
70.8488°
RAAN
315.2709°
Arg. of periapsis
327.8911°
True anomaly
32.22199°
Mean anomaly
31.8482°
Eccentric anomaly
32.03485°
Mean motion
3.57375 °/min
Orbital period
100.73 mins
BSTAR
0.00053792
Loading maneuver chart data...
Computing Atmospheric mass density...

Documentation

Showing up to 5 results
|